User: anonymous   Login
Location: Igri�s
(42.2144°N, 0.4320°W)
Time: 17:21:10
(UTC+00:00)
Language:

Okean 1-7 - Orbit

View from above orbital plane
View from above orbital plane
View from above satellite
View from above satellite

Ground track
Ground track

The orbit data is extracted from the following two-line orbital elements,

1 23317U 94066A   20298.45925595  .00000293  00000-0  29317-4 0  9996
2 23317  82.5402  45.6879 0018681 320.2619  39.7229 14.87812880408095
Epoch (UTC): 24 October 2020 11:01:19
Eccentricity: 0.0018681
inclination: 82.5402°
perigee height: 592 km
apogee height: 618 km
right ascension of ascending node: 45.6879°
argument of perigee: 320.2619°
revolutions per day: 14.87812880
mean anomaly at epoch: 39.7229°
orbit number at epoch: 40809

The dashed part of the orbit path shows where the satellite is in the earth's shadow,  

DLR